"2010-03-30 00:00:00",1806037,1.303,305.7,4.757,0.154,15.84,106.3586,15.55,16.59,12.86,0,110.5,13.3,16.36,267.7
"2010-03-30 00:00:30",1806038,0.984,315.1,11.06,0.141,15.86,106.3598,15.55,16.6,12.86,0,110.5,13.3,16.36,277.1
"2010-03-30 00:01:00",1806039,1.522,312.7,2.815,0.126,15.91,106.3643,15.57,16.59,12.82,0,110.5,13.3,16.37,274.7
"2010-03-30 00:01:30",1806040,1.592,311.3,2.686,0.146,15.86,106.3612,15.56,16.57,12.84,0,110.5,13.3,16.36,273.3
"2010-03-30 00:02:00",1806041,1.968,304.4,6.083,0.444,15.81,106.3559,15.54,16.57,12.81,0,110.5,13.3,16.35,266.4
"2010-03-30 00:02:30",1806042,3.101,304.5,2.895,0.41,15.96,106.3521,15.53,16.57,12.94,0,110.5,13.31,16.34,266.5
"2010-03-30 00:03:00",1806043,2.431,294.9,7.625,0.628,15.79,106.3451,15.52,16.56,12.97,0,110.5,13.31,16.32,256.9
"2010-03-30 00:03:30",1806044,2.128,307.4,6.123,0.25,15.87,106.3435,15.51,16.55,12.87,0,110.5,13.31,16.32,269.4
"2010-03-30 00:04:00",1806045,2.462,309.3,3.468,0.285,15.93,106.3472,15.52,16.54,13.02,0,110.5,13.31,16.33,271.3
"2010-03-30 00:04:30",1806046,3.335,304.2,2.371,0.447,15.96,106.349,15.53,16.54,13.1,0,110.5,13.31,16.33,266.2
"2010-03-30 00:05:00",1806047,3.119,303,8.09,0.385,15.91,106.3508,15.53,16.53,13.06,0,110.5,13.31,16.34,265.0
"2010-03-30 00:05:30",1806048,3.257,315.3,4.224,0.204,15.98,106.355,15.54,16.53,13.05,0,110.5,13.31,16.35,277.3
"2010-03-30 00:06:00",1806049,3.198,310.7,5.666,0.471,16.04,106.3544,15.54,16.52,13.06,0,110.5,13.31,16.35,272.7
"2010-03-30 00:06:30",1806050,3.085,315.3,4.534,0.236,15.99,106.3553,15.54,16.53,13.05,0,110.5,13.3,16.35,277.3
"2010-03-30 00:07:00",1806051,2.919,314.1,3.189,0.397,15.96,106.3553,15.54,16.53,13.05,0,110.5,13.3,16.35,276.1
"2010-03-30 00:07:30",1806052,3.326,317.8,3.62,0.265,16.08,106.3553,15.54,16.53,13.03,0,110.5,13.3,16.35,279.8
"2010-03-30 00:08:00",1806053,3.144,316.7,1.982,0.135,16.05,106.3556,15.54,16.52,13.07,0,110.5,13.3,16.35,278.7
"2010-03-30 00:08:30",1806054,2.777,315.1,5.354,0.299,16.01,106.3556,15.54,16.52,13.11,0,110.5,13.3,16.35,277.1
"2010-03-30 00:09:00",1806055,2.11,314.9,6.914,0.135,16.03,106.3556,15.54,16.51,13.09,0,110.5,13.3,16.35,276.9
"2010-03-30 00:09:30",1806056,2.444,324.5,4.056,0.187,16.12,106.3556,15.54,16.52,13.1,0,110.5,13.3,16.35,286.5
"2010-03-30 00:10:00",1806057,2.023,323.4,2.122,0.061,16.23,106.3556,15.54,16.52,13.13,0,110.5,13.3,16.35,285.4
"2010-03-30 00:10:30",1806058,1.904,328.7,10.92,0.275,16.09,106.3556,15.54,16.51,13.14,0,110.5,13.3,16.35,290.7
"2010-03-30 00:11:00",1806059,1.644,3.353,11.13,0.422,15.94,106.3556,15.54,16.52,13.12,0,110.5,13.3,16.35,325.4
"2010-03-30 00:11:30",1806060,1.674,349.8,14.28,0.522,15.98,106.3556,15.54,16.53,13.11,0,110.5,13.31,16.35,311.8
"2010-03-30 00:12:00",1806061,2.152,339.6,4.86,0.147,15.94,106.3554,15.54,16.51,13.13,0,110.5,13.31,16.35,301.6
"2010-03-30 00:12:30",1806062,1.254,354,8.57,0.518,15.98,106.3554,15.54,16.53,13.13,0,110.5,13.31,16.35,316.0
"2010-03-30 00:13:00",1806063,1.896,349.2,7.319,0.312,15.95,106.3542,15.54,16.51,13.12,0,110.5,13.31,16.35,311.2
"2010-03-30 00:13:30",1806064,2.318,340.3,3.522,0.161,15.96,106.3511,15.53,16.53,13.11,0,110.5,13.31,16.34,302.3
"2010-03-30 00:14:00",1806065,2.109,343.5,7.409,0.263,15.95,106.3514,15.53,16.52,13.13,0,110.5,13.31,16.34,305.5
"2010-03-30 00:14:30",1806066,2.731,342.6,7.606,0.339,16.01,106.3494,15.53,16.53,13.14,0,110.5,13.31,16.33,304.6
"2010-03-30 00:15:00",1806067,2.15,356.3,3.892,0.267,16.01,106.3497,15.53,16.53,13.17,0,110.5,13.31,16.33,318.3
"2010-03-30 00:15:30",1806068,2.351,355.4,7.284,0.246,15.93,106.3489,15.53,16.53,13.16,0,110.5,13.31,16.33,317.4
"2010-03-30 00:16:00",1806069,2.106,347.9,7.479,0.281,15.91,106.3469,15.52,16.52,13.16,0,110.5,13.31,16.33,309.9
"2010-03-30 00:16:30",1806070,2.385,349.3,7.775,0.544,15.96,106.3458,15.52,16.52,13.18,0,110.5,13.31,16.32,311.3
"2010-03-30 00:17:00",1806071,1.476,1.797,9.93,0.362,15.94,106.3455,15.52,16.51,13.17,0,110.5,13.31,16.32,323.8
"2010-03-30 00:17:30",1806072,1.387,12.25,9.74,0.284,15.92,106.341,15.51,16.51,13.19,0,110.5,13.31,16.31,334.2
"2010-03-30 00:18:00",1806073,1.646,11.5,16.99,0.305,15.91,106.3323,15.48,16.52,13.19,0,110.5,13.31,16.29,333.5
"2010-03-30 00:18:30",1806074,1.505,32.62,6.767,0.198,15.88,106.3283,15.47,16.52,13.18,0,110.5,13.31,16.28,354.6
"2010-03-30 00:19:00",1806075,1.403,20.41,12.37,0.386,15.89,106.323,15.46,16.51,13.17,0,110.5,13.31,16.27,342.4
"2010-03-30 00:19:30",1806076,0.678,355.8,15.56,0.437,15.94,106.3221,15.46,16.51,13.17,0,110.5,13.31,16.26,317.8
"2010-03-30 00:20:00",1806077,0.899,350.5,16.13,0.466,15.96,106.3218,15.46,16.52,13.22,0,110.5,13.31,16.26,312.5
"2010-03-30 00:20:30",1806078,1.793,343.1,10.96,0.367,15.91,106.3218,15.46,16.51,13.22,0,110.5,13.31,16.26,305.1
"2010-03-30 00:21:00",1806079,2.101,325.5,9.12,0.164,15.9,106.3218,15.46,16.5,13.2,0,110.5,13.31,16.26,287.5
"2010-03-30 00:21:30",1806080,2.21,316.4,3.303,0.093,15.86,106.3218,15.46,16.51,13.19,0,110.5,13.31,16.26,278.4
"2010-03-30 00:22:00",1806081,2.593,318.5,7.048,0.245,15.88,106.3218,15.46,16.52,13.16,0,110.5,13.31,16.26,280.5
"2010-03-30 00:22:30",1806082,2.683,323.8,5.289,0.192,15.91,106.3218,15.46,16.51,13.21,0,110.5,13.31,16.26,285.8
"2010-03-30 00:23:00",1806083,2.379,313.8,3.582,0.189,15.85,106.3218,15.46,16.5,13.26,0,110.5,13.31,16.26,275.8
"2010-03-30 00:23:30",1806084,1.581,308.6,5.555,0.174,15.89,106.3218,15.46,16.51,13.3,0,110.5,13.31,16.26,270.6
"2010-03-30 00:24:00",1806085,1.82,309.9,4.713,0.135,15.9,106.3219,15.46,16.5,13.29,0,110.5,13.31,16.26,271.9
"2010-03-30 00:24:30",1806086,1.804,313.9,3.157,0.135,15.84,106.3199,15.45,16.47,13.27,0,110.5,13.31,16.26,275.9
"2010-03-30 00:25:00",1806087,1.546,309.4,1.876,0.21,15.89,106.3154,15.44,16.47,13.28,0,110.5,13.31,16.25,271.4
"2010-03-30 00:25:30",1806088,1.359,314.6,2.622,0.163,15.93,106.311,15.43,16.47,13.32,0,110.5,13.31,16.24,276.6
"2010-03-30 00:26:00",1806089,1.564,310.8,6.63,0.413,15.96,106.2997,15.4,16.48,13.33,0,110.5,13.31,16.21,272.8
"2010-03-30 00:26:30",1806090,2.009,288.8,11.91,0.248,16.14,106.2945,15.39,16.48,13.31,0,110.5,13.31,16.19,250.8
"2010-03-30 00:27:00",1806091,2.068,295.3,19.66,0.317,16.1,106.2916,15.38,16.47,13.31,0,110.5,13.31,16.19,257.3
"2010-03-30 00:27:30",1806092,2.125,316,4.029,0.069,15.94,106.2952,15.39,16.46,13.32,0,110.5,13.31,16.19,278.0
"2010-03-30 00:28:00",1806093,1.952,320.4,7.579,0.1,15.93,106.2946,15.39,16.46,13.37,0,110.5,13.32,16.19,282.4
"2010-03-30 00:28:30",1806094,2.08,322.4,3.312,0.097,15.97,106.2973,15.39,16.46,13.39,0,110.5,13.32,16.20,284.4
"2010-03-30 00:29:00",1806095,2.138,318.2,4.355,0.085,15.99,106.2991,15.4,16.45,13.4,0,110.5,13.32,16.20,280.2
"2010-03-30 00:29:30",1806096,1.733,320.6,3.016,0.094,15.94,106.2988,15.4,16.44,13.42,0,110.5,13.32,16.20,282.6
"2010-03-30 00:30:00",1806097,1.817,313.9,4.396,0.135,15.84,106.3015,15.41,16.46,13.4,0,110.5,13.32,16.21,275.9
"2010-03-30 00:30:30",1806098,2.353,295.8,15.1,0.56,16.25,106.303,15.41,16.43,13.35,0,110.5,13.32,16.21,257.8
"2010-03-30 00:31:00",1806099,2.421,292.9,24.26,0.5,16.16,106.3048,15.41,16.43,13.25,0,110.5,13.32,16.22,254.9
"2010-03-30 00:31:30",1806100,2.034,334.2,7.919,0.257,15.86,106.3069,15.42,16.44,13.31,0,110.5,13.32,16.22,296.2
"2010-03-30 00:32:00",1806101,2.155,335.4,19.36,0.665,15.93,106.3093,15.43,16.45,13.38,0,110.5,13.32,16.23,297.4
"2010-03-30 00:32:30",1806102,2.471,315.9,6.56,0.612,15.93,106.3105,15.43,16.44,13.35,0,110.5,13.32,16.23,277.9
"2010-03-30 00:33:00",1806103,1.665,330.5,19.77,0.57,15.82,106.3141,15.44,16.44,13.35,0,110.5,13.32,16.24,292.5
"2010-03-30 00:33:30",1806104,2.565,334.2,4.165,0.163,15.66,106.315,15.44,16.43,13.42,0,110.5,13.32,16.25,296.2
"2010-03-30 00:34:00",1806105,2.561,327.6,1.705,0.156,15.5,106.3144,15.44,16.43,13.43,0,110.5,13.32,16.24,289.6
"2010-03-30 00:34:30",1806106,2.602,331.2,2.911,0.172,15.46,106.3153,15.44,16.43,13.44,0,110.5,13.32,16.25,293.2
"2010-03-30 00:35:00",1806107,1.952,339,5.227,0.169,15.43,106.3156,15.44,16.44,13.44,0,110.5,13.32,16.25,301.0
"2010-03-30 00:35:30",1806108,2.223,328.6,3.135,0.128,15.43,106.3171,15.45,16.43,13.44,0,110.5,13.32,16.25,290.6
"2010-03-30 00:36:00",1806109,2.12,321.3,1.957,0.051,15.4,106.3168,15.44,16.43,13.45,0,110.5,13.32,16.25,283.3
"2010-03-30 00:36:30",1806110,2.034,318.6,2.362,0.097,15.51,106.3177,15.45,16.45,13.44,0,110.5,13.32,16.25,280.6
"2010-03-30 00:37:00",1806111,1.731,312.1,4.698,0.131,15.57,106.3177,15.45,16.44,13.43,0,110.5,13.32,16.25,274.1
"2010-03-30 00:37:30",1806112,1.22,314.2,6.179,0.166,15.66,106.3185,15.45,16.44,13.42,0,110.5,13.32,16.25,276.2
"2010-03-30 00:38:00",1806113,0.676,336.3,18.98,0.497,15.73,106.3253,15.47,16.45,13.39,0,110.5,13.32,16.27,298.3
"2010-03-30 00:38:30",1806114,0.599,170.7,62.52,0.483,15.68,106.334,15.49,16.44,13.25,0,110.5,13.32,16.29,132.7
"2010-03-30 00:39:00",1806115,2.62,163.3,6.696,0.919,15.34,106.3265,15.47,16.45,13.39,0,110.5,13.32,16.28,125.3
"2010-03-30 00:39:30",1806116,4.432,178.2,17.77,0.37,15.38,106.3201,15.45,16.42,13.7,0,110.5,13.32,16.26,140.2
"2010-03-30 00:40:00",1806117,5.474,199.4,1.79,0.235,15.47,106.3192,15.45,16.4,13.86,0,110.5,13.32,16.26,161.4
"2010-03-30 00:40:30",1806118,5.228,206.9,4.855,0.541,15.76,106.3165,15.44,16.38,13.51,0,110.5,13.32,16.25,168.9
"2010-03-30 00:41:00",1806119,5.121,220.6,3.095,0.692,16.08,106.3108,15.43,16.38,13.34,0,110.5,13.32,16.23,182.6
"2010-03-30 00:41:30",1806120,5.51,234.2,13.2,0.676,16.25,106.3072,15.42,16.39,13.34,0,110.5,13.32,16.23,196.2
"2010-03-30 00:42:00",1806121,4.107,227.7,9.97,0.48,16.23,106.3124,15.43,16.39,13.1,0,110.5,13.32,16.24,189.7
"2010-03-30 00:42:30",1806122,3.94,238.4,10.76,0.411,16.11,106.3155,15.44,16.38,13.5,0,110.5,13.32,16.25,200.4
"2010-03-30 00:43:00",1806123,3.521,228.4,3.481,0.474,16.02,106.3172,15.45,16.38,13.68,0,110.5,13.32,16.25,190.4
"2010-03-30 00:43:30",1806124,2.639,261.8,10.37,0.485,16.17,106.3203,15.45,16.37,13.7,0,110.5,13.32,16.26,223.8
"2010-03-30 00:44:00",1806125,3.289,238.6,4.437,0.759,16.13,106.3237,15.46,16.38,13.64,0,110.5,13.32,16.27,200.6
"2010-03-30 00:44:30",1806126,4.426,238,3.31,0.21,16.3,106.3237,15.46,16.39,13.21,0,110.5,13.32,16.27,200.0
"2010-03-30 00:45:00",1806127,4.716,242.5,2.962,0.253,16.26,106.324,15.46,16.38,13.11,0,110.5,13.32,16.27,204.5
"2010-03-30 00:45:30",1806128,3.684,234.5,7.322,0.49,16.19,106.3237,15.46,16.39,13.26,0,110.5,13.32,16.27,196.5
"2010-03-30 00:46:00",1806129,4.672,240.3,8.37,0.5,16.2,106.324,15.46,16.38,13.29,0,110.5,13.33,16.27,202.3
"2010-03-30 00:46:30",1806130,5.133,238.4,5.245,0.504,16.19,106.324,15.46,16.4,13.34,0,110.5,13.33,16.27,200.4
"2010-03-30 00:47:00",1806131,5.138,237.8,7.435,0.361,16.18,106.324,15.46,16.4,13.3,0,110.5,13.33,16.27,199.8
"2010-03-30 00:47:30",1806132,5.175,240,6.788,0.304,16.22,106.324,15.46,16.41,13.27,0,110.5,13.33,16.27,202.0
"2010-03-30 00:48:00",1806133,5.155,232,7.37,0.407,16.15,106.324,15.46,16.41,13.25,0,110.5,13.33,16.27,194.0
"2010-03-30 00:48:30",1806134,4.457,231.1,2.657,0.375,16.14,106.324,15.46,16.42,13.31,0,110.5,13.33,16.27,193.1
"2010-03-30 00:49:00",1806135,4.169,224.2,4.127,0.429,16.11,106.324,15.46,16.43,13.37,0,110.5,13.33,16.27,186.2
"2010-03-30 00:49:30",1806136,4.23,231.1,2.84,0.21,16.12,106.324,15.46,16.44,13.42,0,110.5,13.33,16.27,193.1
"2010-03-30 00:50:00",1806137,4.355,233.3,4.847,0.113,16.13,106.324,15.46,16.43,13.44,0,110.5,13.33,16.27,195.3
"2010-03-30 00:50:30",1806138,4.474,233.2,4.725,0.214,16.04,106.324,15.46,16.45,13.46,0,110.5,13.33,16.27,195.2
"2010-03-30 00:51:00",1806139,4.536,232,4.675,0.244,16.04,106.324,15.46,16.45,13.55,0,110.5,13.33,16.27,194.0
"2010-03-30 00:51:30",1806140,5.066,232.2,3.559,0.604,16.12,106.3245,15.46,16.46,13.42,0,110.5,13.33,16.27,194.2
"2010-03-30 00:52:00",1806141,5.2,231.9,2.506,0.155,16.09,106.3257,15.47,16.47,13.13,0,110.5,13.33,16.27,193.9
"2010-03-30 00:52:30",1806142,4.991,235.6,3.418,0.279,16.09,106.3268,15.47,16.48,13.11,0,110.5,13.33,16.28,197.6
"2010-03-30 00:53:00",1806143,4.517,232.7,3.342,0.196,16.03,106.3305,15.48,16.46,13.14,0,110.5,13.33,16.29,194.7
"2010-03-30 00:53:30",1806144,4.981,226.8,2.284,0.138,16.05,106.3321,15.48,16.47,13.28,0,110.5,13.33,16.29,188.8
"2010-03-30 00:54:00",1806145,5.365,226.1,1.966,0.333,15.88,106.333,15.49,16.49,13.49,0,110.5,13.33,16.29,188.1
"2010-03-30 00:54:30",1806146,5.331,230,2.797,0.253,15.94,106.3335,15.49,16.48,13.63,0,110.5,13.33,16.29,192.0
"2010-03-30 00:55:00",1806147,5.104,223.2,3.704,0.593,15.86,106.3335,15.49,16.49,13.75,0,110.5,13.33,16.29,185.2
"2010-03-30 00:55:30",1806148,4.565,226.9,3.389,0.358,15.85,106.3307,15.48,16.49,13.9,0,110.5,13.33,16.29,188.9
"2010-03-30 00:56:00",1806149,4.887,233.7,3.865,0.151,15.87,106.3259,15.47,16.49,13.91,0,110.5,13.33,16.27,195.7
"2010-03-30 00:56:30",1806150,5.064,232.3,3.656,0.17,15.83,106.3245,15.46,16.49,13.87,0,110.5,13.33,16.27,194.3
"2010-03-30 00:57:00",1806151,4.861,233.8,2.365,0.206,15.93,106.324,15.46,16.5,13.87,0,110.5,13.33,16.27,195.8
"2010-03-30 00:57:30",1806152,4.837,238.9,1.665,0.068,16.15,106.324,15.46,16.48,13.56,0,110.5,13.32,16.27,200.9
"2010-03-30 00:58:00",1806153,4.323,239.6,3.836,0.27,16.12,106.324,15.46,16.49,13.41,0,110.5,13.32,16.27,201.6
"2010-03-30 00:58:30",1806154,3.649,241.3,2.4,0.128,16.09,106.324,15.46,16.47,13.27,0,110.5,13.32,16.27,203.3
"2010-03-30 00:59:00",1806155,3.816,244,3.312,0.116,16.12,106.324,15.46,16.46,13.31,0,110.5,13.32,16.27,206.0
"2010-03-30 00:59:30",1806156,3.464,249.4,3.264,0.184,16.17,106.324,15.46,16.47,13.2,0,110.5,13.32,16.27,211.4
"2010-03-30 01:00:00",1806157,3.723,256.2,4.414,0.204,16.2,106.3237,15.46,16.44,13.08,0,110.5,13.33,16.27,218.2
"2010-03-30 01:00:30",1806158,3.989,242.7,3.05,0.168,15.96,106.3203,15.45,16.44,13.17,0,110.5,13.33,16.26,204.7
"2010-03-30 01:01:00",1806159,3.466,245.7,3.125,0.211,16.01,106.3119,15.43,16.46,13.33,0,110.5,13.33,16.24,207.7
"2010-03-30 01:01:30",1806160,3.199,244.8,1.735,0.082,15.96,106.2966,15.39,16.45,13.28,0,110.5,13.33,16.20,206.8
"2010-03-30 01:02:00",1806161,3.271,240.1,1.274,0.183,16.09,106.2902,15.38,16.43,13.3,0,110.5,13.33,16.18,202.1
"2010-03-30 01:02:30",1806162,2.898,246.4,2.679,0.087,16.15,106.2902,15.38,16.42,13.26,0,110.5,13.33,16.18,208.4
"2010-03-30 01:03:00",1806163,2.654,251,2.915,0.141,16.07,106.2902,15.38,16.43,13.17,0,110.5,13.33,16.18,213.0
"2010-03-30 01:03:30",1806164,3.128,254.6,1.483,0.168,16.03,106.2902,15.38,16.41,13.18,0,110.5,13.33,16.18,216.6
"2010-03-30 01:04:00",1806165,3.485,258.4,2.679,0.154,16.27,106.2902,15.38,16.42,13.01,0,110.5,13.33,16.18,220.4
"2010-03-30 01:04:30",1806166,3.612,255.9,3.429,0.12,16.24,106.2902,15.38,16.41,12.85,0,110.5,13.33,16.18,217.9
"2010-03-30 01:05:00",1806167,4.43,255.5,1.188,0.454,16.22,106.2888,15.37,16.39,12.99,0,110.5,13.33,16.18,217.5
"2010-03-30 01:05:30",1806168,4.695,254.8,1.062,0.12,16.34,106.2851,15.36,16.4,12.88,0,110.4,13.33,16.17,216.8
"2010-03-30 01:06:00",1806169,4.597,253.1,1.552,0.113,16.27,106.2803,15.35,16.4,12.79,0,110.5,13.33,16.16,215.1
"2010-03-30 01:06:30",1806170,4.326,252.8,1.3,0.066,16.31,106.2728,15.33,16.39,12.75,0,110.5,13.34,16.14,214.8
"2010-03-30 01:07:00",1806171,4.356,255.2,0.925,0.102,16.33,106.263,15.31,16.37,12.73,0,110.4,13.34,16.11,217.2
"2010-03-30 01:07:30",1806172,4.195,257.3,1.242,0.067,16.25,106.261,15.3,16.37,12.75,0,110.4,13.34,16.11,219.3
"2010-03-30 01:08:00",1806173,4.328,259.5,1.395,0.108,16.21,106.2626,15.31,16.37,12.77,0,110.4,13.34,16.11,221.5
"2010-03-30 01:08:30",1806174,4.436,264,2.018,0.108,16.28,106.2647,15.31,16.38,12.81,0,110.4,13.34,16.12,226.0
"2010-03-30 01:09:00",1806175,4.484,263.3,1.954,0.128,16.23,106.2662,15.31,16.37,12.91,0,110.5,13.34,16.12,225.3
"2010-03-30 01:09:30",1806176,4.907,265,2.329,0.144,16.24,106.2671,15.32,16.37,12.91,0,110.5,13.34,16.12,227.0
"2010-03-30 01:10:00",1806177,4.707,268.8,2.01,0.141,16.25,106.2683,15.32,16.35,13,0,110.4,13.34,16.13,230.8
"2010-03-30 01:10:30",1806178,4.608,271.6,1.592,0.213,16.25,106.2716,15.33,16.36,13.02,0,110.4,13.34,16.13,233.6
"2010-03-30 01:11:00",1806179,4.896,275.8,2.355,0.114,16.19,106.2749,15.34,16.36,13.03,0,110.4,13.34,16.14,237.8
"2010-03-30 01:11:30",1806180,4.69,280.6,1.895,0.078,16.17,106.2752,15.34,16.36,13.1,0,110.4,13.34,16.14,242.6
"2010-03-30 01:12:00",1806181,4.163,286.8,4.258,0.252,16.13,106.2767,15.34,16.37,13.16,0,110.4,13.34,16.15,248.8
"2010-03-30 01:12:30",1806182,3.937,286.7,1.971,0.175,16.27,106.277,15.34,16.35,13.17,0,110.4,13.34,16.15,248.7
"2010-03-30 01:13:00",1806183,3.656,290.9,3.949,0.129,16.19,106.2791,15.35,16.35,13.17,0,110.4,13.34,16.15,252.9
"2010-03-30 01:13:30",1806184,3.381,288,1.685,0.144,16.22,106.2806,15.35,16.35,13.21,0,110.4,13.33,16.16,250.0
"2010-03-30 01:14:00",1806185,3.421,285.2,2.267,0.158,16.18,106.2821,15.36,16.37,13.22,0,110.4,13.33,16.16,247.2
"2010-03-30 01:14:30",1806186,3.268,287.5,1.344,0.068,16.32,106.2827,15.36,16.36,13.22,0,110.4,13.33,16.16,249.5
"2010-03-30 01:15:00",1806187,2.968,290.7,1.419,0.135,16.34,106.2845,15.36,16.34,13.21,0,110.4,13.33,16.17,252.7
"2010-03-30 01:15:30",1806188,3.048,293.5,1.857,0.109,16.26,106.2863,15.37,16.35,13.2,0,110.4,13.33,16.17,255.5
"2010-03-30 01:16:00",1806189,2.919,301.4,2.607,0.139,16.33,106.2878,15.37,16.35,13.2,0,110.4,13.33,16.18,263.4
"2010-03-30 01:16:30",1806190,2.659,306.8,1.434,0.076,16.34,106.2887,15.37,16.36,13.17,0,110.4,13.33,16.18,268.8
"2010-03-30 01:17:00",1806191,2.59,308.8,3.517,0.071,16.29,106.2899,15.38,16.34,13.16,0,110.4,13.33,16.18,270.8
"2010-03-30 01:17:30",1806192,2.466,313,3.101,0.106,16.22,106.2902,15.38,16.34,13.17,0,110.4,13.33,16.18,275.0
"2010-03-30 01:18:00",1806193,2.95,313.2,2.939,0.381,16.23,106.2911,15.38,16.35,13.18,0,110.4,13.33,16.18,275.2
"2010-03-30 01:18:30",1806194,2.688,303,2.447,0.078,16.29,106.2914,15.38,16.34,13.18,0,110.4,13.34,16.19,265.0
"2010-03-30 01:19:00",1806195,2.948,307.5,2.373,0.118,16.29,106.2852,15.36,16.33,13.17,0,110.4,13.34,16.17,269.5
"2010-03-30 01:19:30",1806196,2.77,310.1,3.371,0.14,16.24,106.2705,15.33,16.32,13.22,0,110.4,13.34,16.13,272.1
"2010-03-30 01:20:00",1806197,3.048,310.6,3.845,0.207,16.24,106.2661,15.31,16.33,13.25,0,110.4,13.34,16.12,272.6
"2010-03-30 01:20:30",1806198,2.905,308.6,2.99,0.179,16.17,106.2624,15.31,16.32,13.3,0,110.4,13.34,16.11,270.6
"2010-03-30 01:21:00",1806199,3.239,302.3,3.418,0.205,16.23,106.259,15.3,16.31,13.32,0,110.4,13.34,16.10,264.3
"2010-03-30 01:21:30",1806200,3.526,305.5,2.1,0.138,16.23,106.2585,15.29,16.31,13.31,0,110.4,13.34,16.10,267.5
"2010-03-30 01:22:00",1806201,3.754,299.3,3.016,0.143,16.23,106.2585,15.29,16.31,13.32,0,110.4,13.34,16.10,261.3
"2010-03-30 01:22:30",1806202,3.842,297.7,2.039,0.08,16.24,106.2585,15.29,16.32,13.35,0,110.4,13.34,16.10,259.7
"2010-03-30 01:23:00",1806203,3.941,301.9,3.496,0.205,16.21,106.2585,15.29,16.29,13.38,0,110.4,13.34,16.10,263.9
"2010-03-30 01:23:30",1806204,4.109,298.1,2.336,0.068,16.23,106.2585,15.29,16.28,13.39,0,110.4,13.34,16.10,260.1
"2010-03-30 01:24:00",1806205,3.957,298.3,3.765,0.161,16.23,106.2585,15.29,16.28,13.42,0,110.4,13.34,16.10,260.3
"2010-03-30 01:24:30",1806206,4.159,297.3,2.513,0.216,16.18,106.2585,15.29,16.29,13.43,0,110.4,13.34,16.10,259.3
"2010-03-30 01:25:00",1806207,4.507,300.5,2.478,0.116,16.11,106.2582,15.29,16.29,13.47,0,110.4,13.34,16.10,262.5
"2010-03-30 01:25:30",1806208,4.309,302,1.408,0.088,16.15,106.2559,15.29,16.27,13.51,0,110.4,13.34,16.09,264.0
"2010-03-30 01:26:00",1806209,3.905,309.8,2.245,0.189,15.94,106.2517,15.28,16.26,13.6,0,110.4,13.34,16.08,271.8
"2010-03-30 01:26:30",1806210,3.763,313.4,1.317,0.078,16.02,106.2458,15.26,16.25,13.65,0,110.4,13.34,16.07,275.4
"2010-03-30 01:27:00",1806211,3.762,315.9,1.264,0.135,16.08,106.2345,15.23,16.27,13.7,0,110.4,13.34,16.04,277.9
"2010-03-30 01:27:30",1806212,3.935,318.1,1.584,0.092,16.01,106.2274,15.22,16.26,13.71,0,110.4,13.34,16.02,280.1
"2010-03-30 01:28:00",1806213,3.887,316.1,1.197,0.091,16.06,106.2246,15.21,16.25,13.69,0,110.4,13.34,16.01,278.1
"2010-03-30 01:28:30",1806214,3.785,316.4,0.991,0.078,16.16,106.2246,15.21,16.24,13.67,0,110.4,13.34,16.01,278.4
"2010-03-30 01:29:00",1806215,3.645,316.5,2.317,0.113,16.3,106.2246,15.21,16.24,13.65,0,110.4,13.34,16.01,278.5
"2010-03-30 01:29:30",1806216,3.326,323.6,2.639,0.213,16.19,106.2246,15.21,16.23,13.63,0,110.4,13.34,16.01,285.6
"2010-03-30 01:30:00",1806217,2.79,327.9,2.668,0.205,16.12,106.2246,15.21,16.24,13.64,0,110.4,13.34,16.01,289.9
"2010-03-30 01:30:30",1806218,2.336,335.3,5.277,0.088,16.3,106.2246,15.21,16.21,13.6,0,110.4,13.34,16.01,297.3
"2010-03-30 01:31:00",1806219,2.223,346.5,8.55,0.602,16.13,106.2246,15.21,16.21,13.49,0,110.4,13.34,16.01,308.5
"2010-03-30 01:31:30",1806220,1.153,1.684,4.638,0.16,16.05,106.2241,15.21,16.2,13.42,0,110.4,13.34,16.01,323.7
"2010-03-30 01:32:00",1806221,1.308,2.525,4.081,0.217,16.13,106.2207,15.2,16.2,13.38,0,110.4,13.34,16.00,324.5
"2010-03-30 01:32:30",1806222,1.571,358.3,3.488,0.224,16.15,106.2136,15.18,16.2,13.31,0,110.4,13.34,15.99,320.3
"2010-03-30 01:33:00",1806223,1.921,357.9,2.063,0.153,16.16,106.2131,15.18,16.19,13.31,0,110.4,13.34,15.98,319.9
"2010-03-30 01:33:30",1806224,2.072,354.9,2.559,0.199,16.19,106.1973,15.14,16.18,13.33,0,110.4,13.34,15.94,316.9
"2010-03-30 01:34:00",1806225,2.13,0.906,3.755,0.207,16.2,106.1908,15.12,16.18,13.31,0,110.4,13.34,15.93,322.9
"2010-03-30 01:34:30",1806226,2.545,7.734,2.058,0.159,16.23,106.1908,15.12,16.17,13.33,0,110.4,13.34,15.93,329.7
"2010-03-30 01:35:00",1806227,1.955,2.617,2.098,0.203,16.16,106.1908,15.12,16.17,13.39,0,110.4,13.34,15.93,324.6
"2010-03-30 01:35:30",1806228,2.156,4.288,1.997,0.176,16.19,106.1908,15.12,16.16,13.42,0,110.4,13.35,15.93,326.3
"2010-03-30 01:36:00",1806229,1.969,4.384,2.478,0.292,16.22,106.1908,15.12,16.17,13.4,0,110.4,13.35,15.93,326.4
"2010-03-30 01:36:30",1806230,1.585,3.789,1.761,0.173,16.13,106.1908,15.12,16.14,13.43,0,110.4,13.35,15.93,325.8
"2010-03-30 01:37:00",1806231,1.991,6.616,3.837,0.235,16.16,106.1866,15.11,16.14,13.51,0,110.4,13.35,15.92,328.6
"2010-03-30 01:37:30",1806232,2.211,15.95,3.185,0.086,16.24,106.1795,15.09,16.13,13.57,0,110.4,13.35,15.90,338.0
"2010-03-30 01:38:00",1806233,2.237,16.89,3.257,0.096,16.31,106.1635,15.05,16.13,13.58,0,110.4,13.35,15.86,338.9
"2010-03-30 01:38:30",1806234,2.03,19.91,3.746,0.172,16.19,106.157,15.03,16.12,13.59,0,110.4,13.35,15.84,341.9
"2010-03-30 01:39:00",1806235,1.927,31.29,2.718,0.089,16.23,106.157,15.03,16.1,13.59,0,110.4,13.35,15.84,353.3
"2010-03-30 01:39:30",1806236,1.9,30.22,2.694,0.123,16.3,106.157,15.03,16.08,13.61,0,110.4,13.35,15.84,352.2
"2010-03-30 01:40:00",1806237,1.901,26.21,6.361,0.166,16.22,106.157,15.03,16.08,13.6,0,110.4,13.35,15.84,348.2
"2010-03-30 01:40:30",1806238,1.892,31.35,2.645,0.215,16.15,106.157,15.03,16.08,13.65,0,110.4,13.35,15.84,353.4
"2010-03-30 01:41:00",1806239,1.788,31.04,3.356,0.095,16.29,106.1516,15.02,16.05,13.67,0,110.4,13.35,15.83,353.0
"2010-03-30 01:41:30",1806240,1.853,35.06,4.615,0.14,16.31,106.1443,15,16.05,13.66,0,110.4,13.35,15.81,357.1
"2010-03-30 01:42:00",1806241,1.919,42.09,2.151,0.186,16.25,106.1353,14.98,16.04,13.65,0,110.4,13.35,15.78,4.1
"2010-03-30 01:42:30",1806242,2.072,40.95,1.842,0.088,16.3,106.1234,14.95,16.03,13.66,0,110.4,13.36,15.75,3.0
"2010-03-30 01:43:00",1806243,2.024,39,3.714,0.142,16.17,106.1231,14.95,16.03,13.65,0,110.4,13.36,15.75,1.0
"2010-03-30 01:43:30",1806244,1.763,38.37,3.912,0.158,16.19,106.1231,14.95,16.03,13.67,0,110.4,13.36,15.75,0.4
"2010-03-30 01:44:00",1806245,1.626,50.02,5.418,0.105,16.27,106.1231,14.95,16,13.67,0,110.4,13.36,15.75,12.0
"2010-03-30 01:44:30",1806246,1.644,48.79,3.991,0.15,16.25,106.1231,14.95,15.98,13.64,0,110.4,13.36,15.75,10.8
"2010-03-30 01:45:00",1806247,1.545,41.15,7.433,0.19,16.24,106.1231,14.95,16,13.65,0,110.4,13.36,15.75,3.2
"2010-03-30 01:45:30",1806248,1.444,43.16,3.17,0.076,16.31,106.1231,14.95,15.98,13.63,0,110.4,13.36,15.75,5.2
"2010-03-30 01:46:00",1806249,1.901,35.76,2.874,0.241,16.25,106.1212,14.94,15.97,13.64,0,110.4,13.36,15.75,357.8
"2010-03-30 01:46:30",1806250,1.843,36.62,5.304,0.239,16.29,106.1133,14.92,15.97,13.64,0,110.4,13.35,15.73,358.6